Track COSMOS 2492 (GLONASS) now! COSMOS 2492 (GLONASS) is classified as:
1 39620U 14012A 26246.70444521 -.00000030 00000-0 00000-0 0 9999 2 39620 65.2472 311.2655 0011463 308.1984 51.7701 2.13103440 96913